TimeCST,TemperatureF,Dew PointF,Humidity,Sea Level PressureIn,VisibilityMPH,Wind Direction,Wind SpeedMPH,Gust SpeedMPH,PrecipitationIn,Events,Conditions,WindDirDegrees,DateUTC
12:15 AM,24.8,8.6,50,30.32,10.0,NE,8.1,-,N/A,,Clear,50,2013-02-21 06:15:00
12:35 AM,24.8,8.6,50,30.30,10.0,NE,8.1,-,N/A,,Clear,50,2013-02-21 06:35:00
12:55 AM,24.8,8.6,50,30.30,10.0,NE,8.1,-,N/A,,Clear,40,2013-02-21 06:55:00
1:15 AM,24.8,10.4,54,30.31,10.0,NE,8.1,-,N/A,,Clear,50,2013-02-21 07:15:00
1:55 AM,24.8,8.6,50,30.29,10.0,NE,9.2,-,N/A,,Clear,50,2013-02-21 07:55:00
2:15 AM,24.8,8.6,50,30.30,10.0,NE,9.2,-,N/A,,Clear,40,2013-02-21 08:15:00
2:35 AM,24.8,8.6,50,30.28,10.0,NE,12.7,-,N/A,,Clear,40,2013-02-21 08:35:00
2:55 AM,24.8,8.6,50,30.29,10.0,NE,11.5,-,N/A,,Clear,50,2013-02-21 08:55:00
3:15 AM,23.0,8.6,54,30.30,10.0,NE,8.1,-,N/A,,Clear,40,2013-02-21 09:15:00
3:35 AM,23.0,8.6,54,30.28,10.0,NE,9.2,-,N/A,,Clear,40,2013-02-21 09:35:00
4:15 AM,24.8,8.6,50,30.29,10.0,ENE,8.1,-,N/A,,Clear,60,2013-02-21 10:15:00
4:35 AM,24.8,8.6,50,30.30,10.0,East,10.4,-,N/A,,Clear,80,2013-02-21 10:35:00
4:55 AM,24.8,8.6,50,30.30,10.0,ENE,10.4,-,N/A,,Clear,70,2013-02-21 10:55:00
5:15 AM,24.8,8.6,50,30.29,10.0,ENE,13.8,-,N/A,,Clear,70,2013-02-21 11:15:00
5:55 AM,24.8,8.6,50,30.30,10.0,East,11.5,18.4,N/A,,Clear,80,2013-02-21 11:55:00
6:15 AM,23.0,8.6,54,30.29,10.0,East,10.4,-,N/A,,Clear,90,2013-02-21 12:15:00
6:35 AM,23.0,8.6,54,30.28,10.0,East,12.7,16.1,N/A,,Clear,80,2013-02-21 12:35:00
6:55 AM,23.0,8.6,54,30.26,10.0,East,16.1,-,N/A,,Clear,80,2013-02-21 12:55:00
7:15 AM,24.8,10.4,54,30.27,10.0,East,9.2,-,N/A,,Clear,80,2013-02-21 13:15:00
7:35 AM,24.8,10.4,54,30.27,10.0,East,13.8,-,N/A,,Clear,80,2013-02-21 13:35:00
8:35 AM,26.6,10.4,51,30.26,10.0,East,11.5,18.4,N/A,,Clear,100,2013-02-21 14:35:00
8:55 AM,26.6,12.2,55,30.25,10.0,East,15.0,-,N/A,,Clear,100,2013-02-21 14:55:00
9:35 AM,28.4,12.2,51,30.28,10.0,East,11.5,-,N/A,,Mostly Cloudy,90,2013-02-21 15:35:00
9:55 AM,28.4,12.2,51,30.24,10.0,East,16.1,-,N/A,,Overcast,80,2013-02-21 15:55:00
10:15 AM,30.2,14.0,51,30.24,10.0,East,11.5,-,N/A,,Overcast,90,2013-02-21 16:15:00
10:35 AM,30.2,12.2,47,30.20,10.0,ENE,13.8,-,N/A,,Overcast,60,2013-02-21 16:35:00
10:55 AM,30.2,14.0,51,30.19,10.0,East,13.8,-,N/A,,Overcast,80,2013-02-21 16:55:00
11:15 AM,30.2,14.0,51,30.21,10.0,ENE,12.7,-,N/A,,Overcast,70,2013-02-21 17:15:00
11:35 AM,30.2,14.0,51,30.22,10.0,NE,10.4,-,N/A,,Overcast,50,2013-02-21 17:35:00
11:55 AM,30.2,14.0,51,30.14,10.0,East,18.4,-,N/A,,Overcast,80,2013-02-21 17:55:00
12:15 PM,30.2,15.8,55,30.11,10.0,East,18.4,21.9,N/A,,Overcast,80,2013-02-21 18:15:00
12:55 PM,30.2,17.6,60,30.05,10.0,East,16.1,-,N/A,,Overcast,80,2013-02-21 18:55:00
1:15 PM,30.2,17.6,60,30.02,10.0,East,16.1,-,N/A,,Mostly Cloudy,90,2013-02-21 19:15:00
1:35 PM,30.2,17.6,60,30.04,10.0,East,12.7,19.6,N/A,,Mostly Cloudy,90,2013-02-21 19:35:00
1:55 PM,32.0,17.6,55,30.00,10.0,East,16.1,-,N/A,,Overcast,80,2013-02-21 19:55:00
2:15 PM,32.0,17.6,55,30.01,10.0,East,11.5,-,N/A,,Overcast,80,2013-02-21 20:15:00
2:35 PM,32.0,17.6,55,30.08,10.0,NE,8.1,-,0.01,,Overcast,50,2013-02-21 20:35:00
2:55 PM,32.0,17.6,55,30.10,10.0,NNE,9.2,-,0.03,,Overcast,30,2013-02-21 20:55:00
3:15 PM,32.0,19.4,60,30.11,10.0,NNE,9.2,-,0.01,,Overcast,30,2013-02-21 21:15:00
3:35 PM,32.0,19.4,60,30.12,10.0,NNE,10.4,-,0.03,,Overcast,20,2013-02-21 21:35:00
3:55 PM,30.2,19.4,64,30.12,10.0,NE,10.4,-,0.03,,Overcast,40,2013-02-21 21:55:00
4:15 PM,30.2,19.4,64,30.08,10.0,NE,17.3,-,0.01,,Overcast,50,2013-02-21 22:15:00
4:35 PM,30.2,19.4,64,30.07,10.0,ENE,16.1,-,0.02,,Overcast,60,2013-02-21 22:35:00
4:55 PM,32.0,19.4,60,30.07,9.0,ENE,17.3,23.0,0.05,,Overcast,60,2013-02-21 22:55:00
5:15 PM,32.0,21.2,64,30.06,8.0,East,18.4,24.2,0.04,,Overcast,80,2013-02-21 23:15:00
5:35 PM,32.0,19.4,60,29.98,7.0,East,25.3,-,0.09,,Overcast,80,2013-02-21 23:35:00
5:55 PM,32.0,21.2,64,29.97,10.0,East,16.1,25.3,0.13,,Overcast,80,2013-02-21 23:55:00
6:15 PM,32.0,21.2,64,29.94,10.0,East,21.9,32.2,0.02,,Overcast,90,2013-02-22 00:15:00
6:35 PM,32.0,21.2,64,29.93,10.0,East,16.1,26.5,0.05,,Overcast,90,2013-02-22 00:35:00
6:55 PM,32.0,21.2,64,29.92,10.0,East,16.1,26.5,0.05,,Overcast,100,2013-02-22 00:55:00
7:15 PM,32.0,21.2,64,29.90,9.0,East,12.7,23.0,0.05,,Mostly Cloudy,100,2013-02-22 01:15:00
7:35 PM,32.0,21.2,64,29.92,10.0,ESE,12.7,-,0.07,,Overcast,110,2013-02-22 01:35:00
7:55 PM,33.8,21.2,60,29.96,10.0,ESE,6.9,-,0.09,,Overcast,120,2013-02-22 01:55:00
8:15 PM,33.8,21.2,60,29.94,8.0,ESE,10.4,16.1,0.05,,Overcast,120,2013-02-22 02:15:00
8:35 PM,33.8,23.0,65,29.93,10.0,ESE,10.4,-,0.06,,Overcast,110,2013-02-22 02:35:00
8:55 PM,33.8,23.0,65,29.95,4.0,East,5.8,-,0.18,,Mostly Cloudy,90,2013-02-22 02:55:00
9:15 PM,33.8,23.0,65,29.94,7.0,East,9.2,-,0.06,,Overcast,100,2013-02-22 03:15:00
9:35 PM,33.8,23.0,65,29.92,10.0,East,8.1,-,0.07,,Overcast,100,2013-02-22 03:35:00
9:55 PM,33.8,23.0,65,29.91,10.0,ESE,8.1,-,0.07,,Mostly Cloudy,110,2013-02-22 03:55:00
10:16 PM,33.8,24.8,70,29.90,9.0,ESE,8.1,-,0.02,,Overcast,110,2013-02-22 04:16:00
10:35 PM,33.8,24.8,70,29.88,10.0,ESE,9.2,-,0.03,,Overcast,110,2013-02-22 04:35:00
10:55 PM,33.8,24.8,70,29.86,10.0,ESE,12.7,17.3,0.03,,Mostly Cloudy,110,2013-02-22 04:55:00
11:15 PM,33.8,24.8,70,29.86,10.0,ESE,12.7,16.1,N/A,,Overcast,120,2013-02-22 05:15:00
11:35 PM,33.8,24.8,70,29.85,10.0,ESE,12.7,17.3,N/A,,Overcast,110,2013-02-22 05:35:00